Time,TemperatureF,DewpointF,PressureIn,WindDirection,WindDirectionDegrees,WindSpeedMPH,WindSpeedGustMPH,Humidity,HourlyPrecipIn,Conditions,Clouds,dailyrainin,SoftwareType,DateUTC
2013-07-02 00:01:00,58.5,56.5,29.12,NNE,22,3.1,4.0,93,0.00,,,0.00,VWS V14.00,2013-07-02 04:01:00,
2013-07-02 00:06:00,58.3,56.3,29.12,NNE,23,3.6,7.6,93,0.00,,,0.00,VWS V14.00,2013-07-02 04:06:00,
2013-07-02 00:11:00,58.1,56.1,29.12,NE,54,2.7,7.6,93,0.00,,,0.00,VWS V14.00,2013-07-02 04:11:00,
2013-07-02 00:16:00,58.1,56.1,29.09,NE,56,0.0,7.6,93,0.00,,,0.00,VWS V14.00,2013-07-02 04:16:00,
2013-07-02 00:21:00,58.1,55.8,29.09,NE,36,5.8,7.6,92,0.00,,,0.00,VWS V14.00,2013-07-02 04:21:00,
2013-07-02 00:26:00,57.9,55.6,29.09,NNE,30,0.0,8.3,92,0.00,,,0.00,VWS V14.00,2013-07-02 04:26:00,
2013-07-02 00:31:00,57.9,55.6,29.06,NE,39,3.1,5.8,92,0.00,,,0.00,VWS V14.00,2013-07-02 04:31:00,
2013-07-02 00:36:00,57.9,55.6,29.06,WNW,295,0.0,5.8,92,0.00,,,0.00,VWS V14.00,2013-07-02 04:36:00,
2013-07-02 00:41:00,57.7,55.7,29.06,NE,55,3.1,5.8,93,0.00,,,0.00,VWS V14.00,2013-07-02 04:41:00,
2013-07-02 00:46:00,57.7,55.7,29.09,NE,53,2.2,5.8,93,0.00,,,0.00,VWS V14.00,2013-07-02 04:46:00,
2013-07-02 00:51:00,57.7,55.7,29.09,NNE,17,3.6,5.8,93,0.00,,,0.00,VWS V14.00,2013-07-02 04:51:00,
2013-07-02 00:56:00,57.9,55.6,29.09,NE,38,0.0,5.8,92,0.00,,,0.00,VWS V14.00,2013-07-02 04:56:00,
2013-07-02 01:01:00,57.9,55.3,29.12,ENE,73,2.2,5.4,91,0.00,,,0.00,VWS V14.00,2013-07-02 05:01:00,
2013-07-02 01:06:00,57.9,55.3,29.12,NNE,24,3.6,5.4,91,0.00,,,0.00,VWS V14.00,2013-07-02 05:06:00,
2013-07-02 01:14:00,57.9,55.3,29.12,NE,45,2.7,2.7,91,0.00,,,0.00,VWS V14.00,2013-07-02 05:14:00,
2013-07-02 01:19:00,57.9,55.0,29.12,NE,43,0.0,3.6,90,0.00,,,0.00,VWS V14.00,2013-07-02 05:19:00,
2013-07-02 01:24:00,57.9,55.0,29.12,NE,52,0.0,4.0,90,0.00,,,0.00,VWS V14.00,2013-07-02 05:24:00,
2013-07-02 01:29:00,57.9,55.0,29.12,NE,52,0.0,4.0,90,0.00,,,0.00,VWS V14.00,2013-07-02 05:29:00,
2013-07-02 01:34:00,57.9,55.3,29.12,NE,52,0.0,3.6,91,0.00,,,0.00,VWS V14.00,2013-07-02 05:34:00,
2013-07-02 01:39:00,57.9,55.3,29.12,NE,52,3.1,3.6,91,0.00,,,0.00,VWS V14.00,2013-07-02 05:39:00,
2013-07-02 01:44:00,57.9,55.6,29.12,NNE,21,0.0,3.6,92,0.00,,,0.00,VWS V14.00,2013-07-02 05:44:00,
2013-07-02 01:49:00,57.7,55.4,29.12,NNE,21,0.0,3.6,92,0.00,,,0.00,VWS V14.00,2013-07-02 05:49:00,
2013-07-02 01:54:00,57.7,55.7,29.12,NNE,19,0.0,3.6,93,0.00,,,0.00,VWS V14.00,2013-07-02 05:54:00,
2013-07-02 01:59:00,57.7,55.7,29.12,NNE,19,0.0,3.6,93,0.00,,,0.00,VWS V14.00,2013-07-02 05:59:00,
2013-07-02 02:04:00,57.7,55.7,29.12,NE,47,4.9,4.9,93,0.00,,,0.00,VWS V14.00,2013-07-02 06:04:00,
2013-07-02 02:09:00,57.7,55.4,29.12,NNE,33,0.0,6.3,92,0.00,,,0.00,VWS V14.00,2013-07-02 06:09:00,
2013-07-02 02:14:00,57.6,55.0,29.12,NE,36,0.0,6.3,91,0.00,,,0.00,VWS V14.00,2013-07-02 06:14:00,
2013-07-02 02:19:00,57.6,55.3,29.12,NE,34,0.0,6.3,92,0.00,,,0.00,VWS V14.00,2013-07-02 06:19:00,
2013-07-02 02:24:00,57.6,55.3,29.12,NE,35,0.0,6.3,92,0.00,,,0.00,VWS V14.00,2013-07-02 06:24:00,
2013-07-02 02:29:00,57.6,55.3,29.09,NE,35,2.7,6.3,92,0.00,,,0.00,VWS V14.00,2013-07-02 06:29:00,
2013-07-02 02:34:00,57.6,55.0,29.09,NNE,28,3.1,4.9,91,0.00,,,0.00,VWS V14.00,2013-07-02 06:34:00,
2013-07-02 02:39:00,57.6,55.0,29.09,NNE,28,4.0,4.9,91,0.00,,,0.00,VWS V14.00,2013-07-02 06:39:00,
2013-07-02 02:44:00,57.6,55.0,29.09,NNE,27,4.9,5.8,91,0.00,,,0.00,VWS V14.00,2013-07-02 06:44:00,
2013-07-02 02:49:00,57.6,55.0,29.09,NNE,28,0.0,5.8,91,0.00,,,0.00,VWS V14.00,2013-07-02 06:49:00,
2013-07-02 02:54:00,57.6,55.0,29.09,NNE,29,3.1,5.8,91,0.00,,,0.00,VWS V14.00,2013-07-02 06:54:00,
2013-07-02 02:59:00,57.6,55.3,29.09,NNE,29,0.0,5.8,92,0.00,,,0.00,VWS V14.00,2013-07-02 06:59:00,
2013-07-02 03:04:00,57.6,55.3,29.09,NNE,28,4.0,4.9,92,0.00,,,0.00,VWS V14.00,2013-07-02 07:04:00,
2013-07-02 03:09:00,57.6,55.3,29.09,NE,52,0.0,4.9,92,0.00,,,0.00,VWS V14.00,2013-07-02 07:09:00,
2013-07-02 03:14:00,57.7,55.1,29.09,NNE,32,4.0,6.3,91,0.00,,,0.00,VWS V14.00,2013-07-02 07:14:00,
2013-07-02 03:19:00,57.7,55.1,29.09,NNE,32,0.0,8.1,91,0.00,,,0.00,VWS V14.00,2013-07-02 07:19:00,
2013-07-02 03:24:00,57.7,55.1,29.09,NNE,29,0.0,8.1,91,0.00,,,0.00,VWS V14.00,2013-07-02 07:24:00,
2013-07-02 03:29:00,57.6,55.3,29.09,NNE,29,0.0,8.1,92,0.00,,,0.00,VWS V14.00,2013-07-02 07:29:00,
2013-07-02 03:34:00,57.6,55.3,29.09,NE,34,0.0,4.0,92,0.00,,,0.00,VWS V14.00,2013-07-02 07:34:00,
2013-07-02 03:39:00,57.6,55.3,29.09,NNE,33,0.0,4.0,92,0.00,,,0.00,VWS V14.00,2013-07-02 07:39:00,
2013-07-02 03:44:00,57.6,55.3,29.09,NNE,33,0.0,4.0,92,0.00,,,0.00,VWS V14.00,2013-07-02 07:44:00,
2013-07-02 03:49:00,57.6,55.3,29.09,NNE,28,0.0,4.0,92,0.00,,,0.00,VWS V14.00,2013-07-02 07:49:00,
2013-07-02 03:54:00,57.6,55.3,29.09,NE,50,0.0,4.0,92,0.00,,,0.00,VWS V14.00,2013-07-02 07:54:00,
2013-07-02 03:59:00,57.6,55.3,29.09,NNE,31,0.0,4.0,92,0.00,,,0.00,VWS V14.00,2013-07-02 07:59:00,
2013-07-02 04:04:00,57.6,55.3,29.09,NNE,32,4.0,5.4,92,0.00,,,0.00,VWS V14.00,2013-07-02 08:04:00,
2013-07-02 04:09:00,57.6,55.3,29.09,NNE,33,0.0,5.4,92,0.00,,,0.00,VWS V14.00,2013-07-02 08:09:00,
2013-07-02 04:14:00,57.6,55.6,29.09,NE,43,0.0,5.4,93,0.00,,,0.00,VWS V14.00,2013-07-02 08:14:00,
2013-07-02 04:19:00,57.6,55.6,29.09,NNE,14,0.0,5.4,93,0.00,,,0.00,VWS V14.00,2013-07-02 08:19:00,
2013-07-02 04:24:00,57.6,55.6,29.09,NNE,14,0.0,5.4,93,0.00,,,0.00,VWS V14.00,2013-07-02 08:24:00,
2013-07-02 04:29:00,57.6,55.8,29.09,NNE,14,0.0,5.4,94,0.00,,,0.00,VWS V14.00,2013-07-02 08:29:00,
2013-07-02 04:34:00,57.6,55.8,29.09,NNE,14,0.0,0.0,94,0.00,,,0.00,VWS V14.00,2013-07-02 08:34:00,
2013-07-02 04:39:00,57.4,56.0,29.09,NNE,14,0.0,0.0,95,0.00,,,0.00,VWS V14.00,2013-07-02 08:39:00,
2013-07-02 04:44:00,57.4,56.0,29.09,NNE,14,0.0,0.0,95,0.00,,,0.00,VWS V14.00,2013-07-02 08:44:00,
2013-07-02 04:49:00,57.4,56.0,29.09,NNE,14,0.0,0.0,95,0.00,,,0.00,VWS V14.00,2013-07-02 08:49:00,
2013-07-02 04:54:00,57.4,56.0,29.09,NNE,14,0.0,0.0,95,0.00,,,0.00,VWS V14.00,2013-07-02 08:54:00,
2013-07-02 04:59:00,57.4,56.2,29.09,NNE,14,0.0,0.0,96,0.00,,,0.00,VWS V14.00,2013-07-02 08:59:00,
2013-07-02 05:04:00,57.4,56.2,29.09,NNE,14,0.0,0.0,96,0.00,,,0.00,VWS V14.00,2013-07-02 09:04:00,
2013-07-02 05:09:00,57.6,56.4,29.09,NNE,14,0.0,0.0,96,0.00,,,0.00,VWS V14.00,2013-07-02 09:09:00,
2013-07-02 05:14:00,57.6,56.4,29.09,NE,50,0.0,0.0,96,0.00,,,0.00,VWS V14.00,2013-07-02 09:14:00,
2013-07-02 05:19:00,57.6,56.4,29.09,NE,50,0.0,0.0,96,0.00,,,0.00,VWS V14.00,2013-07-02 09:19:00,
2013-07-02 05:24:00,57.6,56.7,29.09,NE,50,0.0,0.0,97,0.00,,,0.00,VWS V14.00,2013-07-02 09:24:00,
2013-07-02 05:29:00,57.6,56.7,29.09,NE,50,0.0,0.0,97,0.00,,,0.00,VWS V14.00,2013-07-02 09:29:00,
2013-07-02 05:34:00,57.4,56.5,29.09,NE,50,0.0,0.0,97,0.00,,,0.00,VWS V14.00,2013-07-02 09:34:00,
2013-07-02 05:40:00,57.4,56.5,29.09,NE,50,0.0,0.0,97,0.00,,,0.00,VWS V14.00,2013-07-02 09:40:00,
2013-07-02 05:45:00,57.4,56.5,29.09,NE,50,0.0,0.0,97,0.00,,,0.00,VWS V14.00,2013-07-02 09:45:00,
2013-07-02 05:50:00,57.6,56.7,29.09,NE,50,0.0,0.0,97,0.00,,,0.00,VWS V14.00,2013-07-02 09:50:00,
2013-07-02 05:55:00,57.6,56.7,29.09,NE,50,0.0,0.0,97,0.00,,,0.00,VWS V14.00,2013-07-02 09:55:00,
2013-07-02 06:00:00,57.6,56.7,29.09,NE,44,0.0,0.0,97,0.00,,,0.00,VWS V14.00,2013-07-02 10:00:00,
2013-07-02 06:05:00,57.6,56.7,29.09,NE,44,0.0,0.0,97,0.00,,,0.00,VWS V14.00,2013-07-02 10:05:00,
2013-07-02 06:10:00,57.6,57.0,29.09,NE,44,0.0,0.0,98,0.00,,,0.00,VWS V14.00,2013-07-02 10:10:00,
2013-07-02 06:15:00,57.6,57.0,29.09,NE,44,0.0,0.0,98,0.00,,,0.00,VWS V14.00,2013-07-02 10:15:00,
2013-07-02 06:20:00,57.6,57.0,29.09,NE,44,0.0,0.0,98,0.00,,,0.00,VWS V14.00,2013-07-02 10:20:00,
2013-07-02 06:25:00,57.6,57.0,29.09,NE,44,0.0,0.0,98,0.00,,,0.00,VWS V14.00,2013-07-02 10:25:00,
2013-07-02 06:30:00,57.6,57.0,29.09,NE,44,0.0,0.0,98,0.00,,,0.00,VWS V14.00,2013-07-02 10:30:00,
2013-07-02 06:35:00,57.7,57.2,29.09,NE,44,0.0,0.0,98,0.00,,,0.00,VWS V14.00,2013-07-02 10:35:00,
2013-07-02 06:40:00,57.7,57.2,29.09,NE,44,0.0,0.0,98,0.00,,,0.00,VWS V14.00,2013-07-02 10:40:00,
2013-07-02 06:45:00,57.7,57.2,29.12,NE,44,0.0,0.0,98,0.00,,,0.00,VWS V14.00,2013-07-02 10:45:00,
2013-07-02 06:50:00,57.9,57.4,29.12,NE,44,0.0,0.0,98,0.00,,,0.00,VWS V14.00,2013-07-02 10:50:00,
2013-07-02 06:55:00,57.9,57.4,29.12,NNE,25,0.0,4.0,98,0.00,,,0.00,VWS V14.00,2013-07-02 10:55:00,
2013-07-02 07:00:00,58.1,57.3,29.12,NE,34,3.6,4.0,97,0.00,,,0.00,VWS V14.00,2013-07-02 11:00:00,
2013-07-02 07:05:00,58.1,57.3,29.12,NE,46,0.0,4.9,97,0.00,,,0.00,VWS V14.00,2013-07-02 11:05:00,
2013-07-02 07:10:00,58.1,57.3,29.12,NE,46,0.0,4.9,97,0.00,,,0.00,VWS V14.00,2013-07-02 11:10:00,
2013-07-02 07:15:00,58.3,57.2,29.12,NE,37,0.0,6.3,96,0.00,,,0.00,VWS V14.00,2013-07-02 11:15:00,
2013-07-02 07:20:00,58.5,57.3,29.12,ENE,74,0.0,6.3,96,0.00,,,0.00,VWS V14.00,2013-07-02 11:20:00,
2013-07-02 07:25:00,58.5,57.3,29.12,ENE,71,0.0,6.3,96,0.00,,,0.00,VWS V14.00,2013-07-02 11:25:00,
2013-07-02 07:30:00,58.6,57.5,29.12,NE,43,0.0,0.0,96,0.00,,,0.00,VWS V14.00,2013-07-02 11:30:00,
2013-07-02 07:35:00,58.8,57.7,29.12,NE,36,0.0,0.0,96,0.00,,,0.00,VWS V14.00,2013-07-02 11:35:00,
2013-07-02 07:40:00,59.0,57.6,29.12,NNE,23,0.0,0.0,95,0.00,,,0.00,VWS V14.00,2013-07-02 11:40:00,
2013-07-02 07:45:00,59.2,57.8,29.12,NNE,23,0.0,0.0,95,0.00,,,0.00,VWS V14.00,2013-07-02 11:45:00,
2013-07-02 07:50:00,59.4,57.9,29.12,NNE,26,0.0,4.9,95,0.00,,,0.00,VWS V14.00,2013-07-02 11:50:00,
2013-07-02 07:55:00,59.5,57.8,29.12,NE,36,0.0,4.9,94,0.00,,,0.00,VWS V14.00,2013-07-02 11:55:00,
2013-07-02 08:00:00,59.7,58.0,29.12,NNE,32,0.0,0.0,94,0.00,,,0.00,VWS V14.00,2013-07-02 12:00:00,
2013-07-02 08:05:00,59.9,57.9,29.12,NNE,26,0.0,5.4,93,0.00,,,0.00,VWS V14.00,2013-07-02 12:05:00,
2013-07-02 08:10:00,60.1,58.0,29.12,NNE,23,3.1,6.3,93,0.00,,,0.00,VWS V14.00,2013-07-02 12:10:00,
2013-07-02 08:15:00,60.1,57.8,29.12,NNE,31,0.0,6.3,92,0.00,,,0.00,VWS V14.00,2013-07-02 12:15:00,
2013-07-02 08:20:00,60.3,57.9,29.12,North,9,3.6,6.7,92,0.00,,,0.00,VWS V14.00,2013-07-02 12:20:00,
2013-07-02 08:25:00,60.4,58.1,29.12,NNE,24,3.6,6.7,92,0.00,,,0.00,VWS V14.00,2013-07-02 12:25:00,
2013-07-02 08:30:00,60.6,58.3,29.12,NE,46,2.7,3.1,92,0.00,,,0.00,VWS V14.00,2013-07-02 12:30:00,
2013-07-02 08:35:00,61.0,58.3,29.12,NNE,24,4.5,5.4,91,0.00,,,0.00,VWS V14.00,2013-07-02 12:35:00,
2013-07-02 08:40:00,61.3,58.4,29.12,NE,49,4.0,5.8,90,0.00,,,0.00,VWS V14.00,2013-07-02 12:40:00,
2013-07-02 08:45:00,61.7,58.7,29.12,NE,56,3.1,5.8,90,0.00,,,0.00,VWS V14.00,2013-07-02 12:45:00,
2013-07-02 08:50:00,62.1,59.1,29.12,NE,56,0.0,6.3,90,0.00,,,0.00,VWS V14.00,2013-07-02 12:50:00,
2013-07-02 08:55:00,62.6,58.4,29.12,NNE,27,0.0,6.7,86,0.00,,,0.00,VWS V14.00,2013-07-02 12:55:00,
2013-07-02 09:00:00,62.8,58.2,29.12,NE,43,3.6,3.6,85,0.00,,,0.00,VWS V14.00,2013-07-02 13:00:00,
2013-07-02 09:05:00,63.1,58.9,29.12,ENE,61,0.0,5.8,86,0.00,,,0.00,VWS V14.00,2013-07-02 13:05:00,
2013-07-02 09:10:00,63.9,59.9,29.12,East,96,0.0,5.8,87,0.00,,,0.00,VWS V14.00,2013-07-02 13:10:00,
2013-07-02 09:15:00,63.9,59.3,29.12,NNE,22,0.0,5.8,85,0.00,,,0.00,VWS V14.00,2013-07-02 13:15:00,
2013-07-02 09:20:00,63.5,57.6,29.12,NE,36,7.6,7.6,81,0.00,,,0.00,VWS V14.00,2013-07-02 13:20:00,
2013-07-02 09:25:00,63.5,57.9,29.12,ENE,77,0.0,7.6,82,0.00,,,0.00,VWS V14.00,2013-07-02 13:25:00,
2013-07-02 09:30:00,64.0,58.4,29.12,NE,49,0.0,2.7,82,0.00,,,0.00,VWS V14.00,2013-07-02 13:30:00,
2013-07-02 09:35:00,64.2,59.0,29.12,NE,44,0.0,4.0,83,0.00,,,0.00,VWS V14.00,2013-07-02 13:35:00,
2013-07-02 09:40:00,64.6,59.3,29.12,SE,125,2.7,4.0,83,0.00,,,0.00,VWS V14.00,2013-07-02 13:40:00,
2013-07-02 09:45:00,65.1,59.8,29.12,East,97,0.0,4.0,83,0.00,,,0.00,VWS V14.00,2013-07-02 13:45:00,
2013-07-02 09:50:00,65.3,59.7,29.12,SE,140,0.0,4.0,82,0.00,,,0.00,VWS V14.00,2013-07-02 13:50:00,
2013-07-02 09:55:00,65.5,59.8,29.12,SE,140,0.0,4.0,82,0.00,,,0.00,VWS V14.00,2013-07-02 13:55:00,
2013-07-02 10:00:00,65.5,59.5,29.12,NNE,23,5.4,5.4,81,0.00,,,0.00,VWS V14.00,2013-07-02 14:00:00,
2013-07-02 10:05:00,65.5,59.2,29.12,NNE,33,0.0,5.4,80,0.00,,,0.00,VWS V14.00,2013-07-02 14:05:00,
2013-07-02 10:10:00,65.5,59.2,29.12,NE,36,0.0,5.4,80,0.00,,,0.00,VWS V14.00,2013-07-02 14:10:00,
2013-07-02 10:15:00,65.7,59.0,29.12,NE,42,0.0,5.4,79,0.00,,,0.00,VWS V14.00,2013-07-02 14:15:00,
2013-07-02 10:20:00,66.0,60.0,29.12,NE,42,0.0,5.4,81,0.00,,,0.00,VWS V14.00,2013-07-02 14:20:00,
2013-07-02 10:25:00,66.4,60.0,29.12,ENE,66,0.0,5.4,80,0.00,,,0.00,VWS V14.00,2013-07-02 14:25:00,
2013-07-02 10:30:00,66.6,60.2,29.12,ENE,70,0.0,0.0,80,0.00,,,0.00,VWS V14.00,2013-07-02 14:30:00,
2013-07-02 10:35:00,66.6,60.2,29.12,ENE,78,0.0,0.0,80,0.00,,,0.00,VWS V14.00,2013-07-02 14:35:00,
2013-07-02 10:40:00,66.6,59.8,29.12,East,98,0.0,0.0,79,0.00,,,0.00,VWS V14.00,2013-07-02 14:40:00,
2013-07-02 10:45:00,66.2,59.2,29.12,NE,45,0.0,3.1,78,0.00,,,0.00,VWS V14.00,2013-07-02 14:45:00,
2013-07-02 10:50:00,66.6,60.2,29.12,NE,42,0.0,3.6,80,0.00,,,0.00,VWS V14.00,2013-07-02 14:50:00,
2013-07-02 10:55:00,66.9,60.6,29.12,ENE,66,0.0,3.6,80,0.00,,,0.00,VWS V14.00,2013-07-02 14:55:00,
2013-07-02 11:00:00,66.7,59.7,29.12,NE,39,0.0,0.0,78,0.00,,,0.00,VWS V14.00,2013-07-02 15:00:00,
2013-07-02 11:05:00,66.9,59.8,29.12,NE,39,0.0,4.9,78,0.00,,,0.00,VWS V14.00,2013-07-02 15:05:00,
2013-07-02 11:10:00,66.7,58.9,29.12,NE,55,2.7,5.4,76,0.00,,,0.00,VWS V14.00,2013-07-02 15:10:00,
2013-07-02 11:15:00,67.3,59.8,29.12,NE,37,0.0,5.4,77,0.00,,,0.00,VWS V14.00,2013-07-02 15:15:00,
2013-07-02 11:20:00,67.1,58.9,29.12,ENE,75,2.7,5.4,75,0.00,,,0.00,VWS V14.00,2013-07-02 15:20:00,
2013-07-02 11:25:00,66.9,58.8,29.12,NNE,32,0.0,5.4,75,0.00,,,0.00,VWS V14.00,2013-07-02 15:25:00,
2013-07-02 11:30:00,67.3,59.8,29.12,NE,36,0.0,0.0,77,0.00,,,0.00,VWS V14.00,2013-07-02 15:30:00,
2013-07-02 11:36:00,67.5,60.4,29.12,SE,129,0.0,0.0,78,0.00,,,0.00,VWS V14.00,2013-07-02 15:36:00,
2013-07-02 11:41:00,67.5,60.0,29.12,NNE,26,0.0,0.0,77,0.00,,,0.00,VWS V14.00,2013-07-02 15:41:00,
2013-07-02 11:45:00,67.5,60.0,29.12,NNW,336,0.0,3.6,77,0.00,,,0.00,VWS V14.00,2013-07-02 15:45:00,
2013-07-02 11:51:00,67.5,60.0,29.12,NE,38,0.0,3.6,77,0.00,,,0.00,VWS V14.00,2013-07-02 15:51:00,
2013-07-02 11:56:00,67.3,59.5,29.12,NE,38,0.0,3.6,76,0.00,,,0.00,VWS V14.00,2013-07-02 15:56:00,
2013-07-02 12:01:00,67.3,59.5,29.12,NE,53,0.0,2.2,76,0.00,,,0.00,VWS V14.00,2013-07-02 16:01:00,
2013-07-02 12:06:00,67.5,59.3,29.12,NNE,27,2.7,4.0,75,0.00,,,0.00,VWS V14.00,2013-07-02 16:06:00,
2013-07-02 12:11:00,67.6,59.8,29.12,SE,124,0.0,4.0,76,0.00,,,0.00,VWS V14.00,2013-07-02 16:11:00,
2013-07-02 12:16:00,68.5,61.0,29.12,ESE,123,0.0,4.0,77,0.00,,,0.00,VWS V14.00,2013-07-02 16:16:00,
2013-07-02 12:21:00,69.1,60.1,29.12,NNE,17,0.0,4.9,73,0.00,,,0.00,VWS V14.00,2013-07-02 16:21:00,
2013-07-02 12:26:00,69.6,61.0,29.12,SE,126,4.0,4.9,74,0.00,,,0.00,VWS V14.00,2013-07-02 16:26:00,
2013-07-02 12:31:00,69.8,60.0,29.12,SE,145,0.0,0.0,71,0.00,,,0.00,VWS V14.00,2013-07-02 16:31:00,
2013-07-02 12:36:00,70.7,60.8,29.12,ESE,110,0.0,2.7,71,0.00,,,0.00,VWS V14.00,2013-07-02 16:36:00,
2013-07-02 12:41:00,70.5,60.3,29.12,East,81,0.0,5.8,70,0.00,,,0.00,VWS V14.00,2013-07-02 16:41:00,
2013-07-02 12:46:00,71.4,61.5,29.12,ENE,78,0.0,5.8,71,0.00,,,0.00,VWS V14.00,2013-07-02 16:46:00,
2013-07-02 12:51:00,71.6,60.9,29.12,ESE,122,0.0,5.8,69,0.00,,,0.00,VWS V14.00,2013-07-02 16:51:00,
2013-07-02 12:56:00,71.2,61.0,29.12,NE,45,0.0,5.8,70,0.00,,,0.00,VWS V14.00,2013-07-02 16:56:00,
2013-07-02 13:01:00,71.2,61.0,29.12,ESE,120,0.0,0.0,70,0.00,,,0.00,VWS V14.00,2013-07-02 17:01:00,
2013-07-02 13:06:00,70.9,59.8,29.12,NNE,19,3.6,5.8,68,0.00,,,0.00,VWS V14.00,2013-07-02 17:06:00,
2013-07-02 13:11:00,70.2,58.7,29.12,NNE,28,2.2,7.6,67,0.00,,,0.00,VWS V14.00,2013-07-02 17:11:00,
2013-07-02 13:16:00,70.7,60.5,29.12,NE,41,0.0,7.6,70,0.00,,,0.00,VWS V14.00,2013-07-02 17:16:00,
2013-07-02 13:21:00,70.7,59.2,29.12,NE,40,2.7,7.6,67,0.00,,,0.00,VWS V14.00,2013-07-02 17:21:00,
2013-07-02 13:26:00,70.7,60.0,29.12,SE,139,0.0,7.6,69,0.00,,,0.00,VWS V14.00,2013-07-02 17:26:00,
2013-07-02 13:31:00,72.1,61.4,29.12,South,175,0.0,4.0,69,0.00,,,0.00,VWS V14.00,2013-07-02 17:31:00,
2013-07-02 13:36:00,72.7,61.5,29.12,NNE,18,3.1,4.0,68,0.00,,,0.00,VWS V14.00,2013-07-02 17:36:00,
2013-07-02 13:41:00,72.7,61.1,29.12,ESE,106,0.0,4.9,67,0.00,,,0.00,VWS V14.00,2013-07-02 17:41:00,
2013-07-02 13:46:00,73.0,61.0,29.12,NNE,16,2.2,8.1,66,0.00,,,0.00,VWS V14.00,2013-07-02 17:46:00,
2013-07-02 13:51:00,73.9,61.4,29.12,ESE,113,0.0,8.1,65,0.00,,,0.00,VWS V14.00,2013-07-02 17:51:00,
2013-07-02 13:56:00,72.7,58.5,29.12,NNE,17,0.0,8.1,61,0.00,,,0.00,VWS V14.00,2013-07-02 17:56:00,
2013-07-02 14:01:00,72.7,60.2,29.12,North,357,2.7,4.9,65,0.00,,,0.00,VWS V14.00,2013-07-02 18:01:00,
2013-07-02 14:06:00,72.5,60.1,29.12,NE,56,6.3,6.3,65,0.00,,,0.00,VWS V14.00,2013-07-02 18:06:00,
2013-07-02 14:11:00,73.8,61.7,29.12,SE,133,0.0,6.3,66,0.00,,,0.00,VWS V14.00,2013-07-02 18:11:00,
2013-07-02 14:16:00,74.7,62.1,29.12,SE,138,0.0,6.7,65,0.00,,,0.00,VWS V14.00,2013-07-02 18:16:00,
2013-07-02 14:21:00,77.0,63.9,29.12,NE,56,0.0,6.7,64,0.00,,,0.00,VWS V14.00,2013-07-02 18:21:00,
2013-07-02 14:26:00,75.9,60.1,29.12,ESE,102,2.7,6.7,58,0.00,,,0.00,VWS V14.00,2013-07-02 18:26:00,
2013-07-02 14:31:00,75.2,59.9,29.12,East,82,2.7,5.8,59,0.00,,,0.00,VWS V14.00,2013-07-02 18:31:00,
2013-07-02 14:36:00,75.0,61.6,29.12,SE,129,0.0,5.8,63,0.00,,,0.00,VWS V14.00,2013-07-02 18:36:00,
2013-07-02 14:41:00,74.7,61.2,29.12,NNE,18,0.0,5.8,63,0.00,,,0.00,VWS V14.00,2013-07-02 18:41:00,
2013-07-02 14:46:00,74.7,61.2,29.12,NE,38,3.6,5.8,63,0.00,,,0.00,VWS V14.00,2013-07-02 18:46:00,
2013-07-02 14:51:00,73.2,59.0,29.12,NNE,21,6.3,7.6,61,0.00,,,0.00,VWS V14.00,2013-07-02 18:51:00,
2013-07-02 14:56:00,73.9,61.0,29.12,ENE,70,0.0,7.6,64,0.00,,,0.00,VWS V14.00,2013-07-02 18:56:00,
2013-07-02 15:01:00,73.8,59.5,29.09,ENE,60,0.0,5.8,61,0.00,,,0.00,VWS V14.00,2013-07-02 19:01:00,
2013-07-02 15:06:00,73.2,59.4,29.09,NNE,16,0.0,6.3,62,0.00,,,0.00,VWS V14.00,2013-07-02 19:06:00,
2013-07-02 15:11:00,73.4,60.5,29.09,NE,48,0.0,6.3,64,0.00,,,0.00,VWS V14.00,2013-07-02 19:11:00,
2013-07-02 15:16:00,73.8,61.3,29.12,NE,42,3.6,6.3,65,0.00,,,0.00,VWS V14.00,2013-07-02 19:16:00,
2013-07-02 15:21:00,73.4,60.9,29.12,NE,36,2.7,6.3,65,0.00,,,0.00,VWS V14.00,2013-07-02 19:21:00,
2013-07-02 15:26:00,73.4,60.5,29.12,NE,37,0.0,6.3,64,0.00,,,0.00,VWS V14.00,2013-07-02 19:26:00,
2013-07-02 15:31:00,72.7,59.8,29.12,North,9,2.7,3.6,64,0.00,,,0.00,VWS V14.00,2013-07-02 19:31:00,
2013-07-02 15:36:00,73.4,61.4,29.12,SE,134,0.0,3.6,66,0.00,,,0.00,VWS V14.00,2013-07-02 19:36:00,
2013-07-02 15:41:00,73.6,61.5,29.12,South,182,0.0,3.6,66,0.00,,,0.00,VWS V14.00,2013-07-02 19:41:00,
2013-07-02 15:46:00,73.4,60.9,29.12,SE,133,0.0,3.6,65,0.00,,,0.00,VWS V14.00,2013-07-02 19:46:00,
2013-07-02 15:51:00,72.9,60.4,29.12,ESE,109,0.0,3.6,65,0.00,,,0.00,VWS V14.00,2013-07-02 19:51:00,
2013-07-02 15:56:00,73.0,61.5,29.12,ESE,107,0.0,3.6,67,0.00,,,0.00,VWS V14.00,2013-07-02 19:56:00,
2013-07-02 16:01:00,73.0,61.5,29.09,ENE,67,0.0,0.0,67,0.00,,,0.00,VWS V14.00,2013-07-02 20:01:00,
2013-07-02 16:06:00,73.0,61.5,29.09,ENE,67,0.0,0.0,67,0.00,,,0.00,VWS V14.00,2013-07-02 20:06:00,
2013-07-02 16:11:00,72.7,61.1,29.09,NNE,29,0.0,0.0,67,0.00,,,0.00,VWS V14.00,2013-07-02 20:11:00,
2013-07-02 16:16:00,72.7,61.5,29.09,NNE,29,0.0,0.0,68,0.00,,,0.00,VWS V14.00,2013-07-02 20:16:00,
2013-07-02 16:21:00,73.0,61.9,29.09,North,0,0.0,0.0,68,0.00,,,0.00,VWS V14.00,2013-07-02 20:21:00,
2013-07-02 16:26:00,73.4,61.8,29.09,ENE,77,0.0,2.7,67,0.00,,,0.00,VWS V14.00,2013-07-02 20:26:00,
2013-07-02 16:31:00,73.9,62.3,29.09,SSE,148,0.0,0.0,67,0.00,,,0.00,VWS V14.00,2013-07-02 20:31:00,
2013-07-02 16:36:00,73.9,61.9,29.09,ESE,116,0.0,0.0,66,0.00,,,0.00,VWS V14.00,2013-07-02 20:36:00,
2013-07-02 16:41:00,73.8,62.1,29.09,SE,129,0.0,0.0,67,0.00,,,0.00,VWS V14.00,2013-07-02 20:41:00,
2013-07-02 16:46:00,73.8,62.1,29.09,SE,129,0.0,0.0,67,0.00,,,0.00,VWS V14.00,2013-07-02 20:46:00,
2013-07-02 16:51:00,73.6,62.0,29.09,NNE,25,0.0,0.0,67,0.00,,,0.00,VWS V14.00,2013-07-02 20:51:00,
2013-07-02 16:56:00,73.6,61.5,29.09,East,91,0.0,0.0,66,0.00,,,0.00,VWS V14.00,2013-07-02 20:56:00,
2013-07-02 17:01:00,73.6,61.5,29.09,East,91,0.0,0.0,66,0.00,,,0.00,VWS V14.00,2013-07-02 21:01:00,
2013-07-02 17:06:00,73.6,62.0,29.09,East,91,0.0,0.0,67,0.00,,,0.00,VWS V14.00,2013-07-02 21:06:00,
2013-07-02 17:11:00,73.8,62.5,29.09,East,91,0.0,0.0,68,0.00,,,0.00,VWS V14.00,2013-07-02 21:11:00,
2013-07-02 17:16:00,73.4,61.4,29.09,ESE,110,0.0,0.0,66,0.00,,,0.00,VWS V14.00,2013-07-02 21:16:00,
2013-07-02 17:21:00,73.2,61.2,29.09,North,0,0.0,0.0,66,0.00,,,0.00,VWS V14.00,2013-07-02 21:21:00,
2013-07-02 17:26:00,73.4,61.4,29.09,NE,46,0.0,0.0,66,0.00,,,0.00,VWS V14.00,2013-07-02 21:26:00,
2013-07-02 17:32:00,73.8,61.7,29.09,NE,46,0.0,0.0,66,0.00,,,0.00,VWS V14.00,2013-07-02 21:32:00,
2013-07-02 17:37:00,73.9,61.9,29.09,NE,46,0.0,0.0,66,0.00,,,0.00,VWS V14.00,2013-07-02 21:37:00,
2013-07-02 17:42:00,73.9,61.4,29.09,NNE,33,0.0,4.0,65,0.00,,,0.00,VWS V14.00,2013-07-02 21:42:00,
2013-07-02 17:47:00,73.8,62.1,29.09,SSE,153,0.0,4.0,67,0.00,,,0.00,VWS V14.00,2013-07-02 21:47:00,
2013-07-02 17:52:00,73.9,61.9,29.09,SE,126,0.0,4.0,66,0.00,,,0.00,VWS V14.00,2013-07-02 21:52:00,
2013-07-02 17:57:00,74.1,62.0,29.09,ESE,116,0.0,4.0,66,0.00,,,0.00,VWS V14.00,2013-07-02 21:57:00,
2013-07-02 18:02:00,74.1,62.0,29.09,SSE,147,0.0,0.0,66,0.00,,,0.00,VWS V14.00,2013-07-02 22:02:00,
2013-07-02 18:07:00,73.9,61.4,29.09,SSW,196,0.0,0.0,65,0.00,,,0.00,VWS V14.00,2013-07-02 22:07:00,
2013-07-02 18:12:00,73.4,60.9,29.09,ESE,120,0.0,3.6,65,0.00,,,0.00,VWS V14.00,2013-07-02 22:12:00,
2013-07-02 18:17:00,73.0,61.0,29.09,South,184,0.0,3.6,66,0.00,,,0.00,VWS V14.00,2013-07-02 22:17:00,
2013-07-02 18:22:00,73.2,62.0,29.09,SSE,165,0.0,3.6,68,0.00,,,0.00,VWS V14.00,2013-07-02 22:22:00,
2013-07-02 18:27:00,73.0,61.9,29.09,SSE,164,0.0,3.6,68,0.00,,,0.00,VWS V14.00,2013-07-02 22:27:00,
2013-07-02 18:32:00,72.9,61.3,29.09,SSE,165,0.0,0.0,67,0.00,,,0.00,VWS V14.00,2013-07-02 22:32:00,
2013-07-02 18:37:00,72.9,61.3,29.09,SSE,165,0.0,0.0,67,0.00,,,0.00,VWS V14.00,2013-07-02 22:37:00,
2013-07-02 18:42:00,72.9,61.3,29.09,SW,222,0.0,0.0,67,0.00,,,0.00,VWS V14.00,2013-07-02 22:42:00,
2013-07-02 18:47:00,73.0,61.9,29.09,SW,227,0.0,0.0,68,0.00,,,0.00,VWS V14.00,2013-07-02 22:47:00,
2013-07-02 18:52:00,73.2,61.6,29.09,SSW,213,0.0,0.0,67,0.00,,,0.00,VWS V14.00,2013-07-02 22:52:00,
2013-07-02 18:57:00,73.2,61.6,29.09,East,99,0.0,0.0,67,0.00,,,0.00,VWS V14.00,2013-07-02 22:57:00,
2013-07-02 19:02:00,73.4,61.4,29.09,ENE,75,0.0,0.0,66,0.00,,,0.00,VWS V14.00,2013-07-02 23:02:00,
2013-07-02 19:07:00,72.5,60.1,29.09,NNE,32,0.0,6.3,65,0.00,,,0.00,VWS V14.00,2013-07-02 23:07:00,
2013-07-02 19:12:00,72.0,60.0,29.09,ENE,71,0.0,6.3,66,0.00,,,0.00,VWS V14.00,2013-07-02 23:12:00,
2013-07-02 19:17:00,71.8,60.2,29.09,NE,54,0.0,6.3,67,0.00,,,0.00,VWS V14.00,2013-07-02 23:17:00,
2013-07-02 19:22:00,71.8,60.7,29.09,NNE,15,0.0,6.3,68,0.00,,,0.00,VWS V14.00,2013-07-02 23:22:00,
2013-07-02 19:27:00,72.0,61.2,29.09,NNE,27,0.0,6.3,69,0.00,,,0.00,VWS V14.00,2013-07-02 23:27:00,
2013-07-02 19:29:00,72.0,60.8,29.09,NNE,27,0.0,6.3,68,0.00,,,0.00,VWS V14.00,2013-07-02 23:29:00,
2013-07-02 19:34:00,71.8,60.2,29.09,NE,41,0.0,5.4,67,0.00,,,0.00,VWS V14.00,2013-07-02 23:34:00,
2013-07-02 19:39:00,71.8,60.7,29.09,East,81,0.0,5.4,68,0.00,,,0.00,VWS V14.00,2013-07-02 23:39:00,
2013-07-02 19:44:00,72.0,61.2,29.09,East,83,0.0,5.4,69,0.00,,,0.00,VWS V14.00,2013-07-02 23:44:00,
2013-07-02 19:49:00,71.6,60.5,29.09,NE,37,3.6,5.4,68,0.00,,,0.00,VWS V14.00,2013-07-02 23:49:00,
2013-07-02 19:54:00,71.4,60.7,29.09,SE,146,0.0,5.4,69,0.00,,,0.00,VWS V14.00,2013-07-02 23:54:00,
2013-07-02 19:59:00,71.1,60.8,29.09,ESE,122,0.0,5.4,70,0.00,,,0.00,VWS V14.00,2013-07-02 23:59:00,
2013-07-02 20:01:00,70.9,60.6,29.09,East,95,0.0,3.1,70,0.00,,,0.00,VWS V14.00,2013-07-03 00:01:00,
2013-07-02 20:06:00,70.7,60.5,29.09,SE,139,0.0,3.1,70,0.00,,,0.00,VWS V14.00,2013-07-03 00:06:00,
2013-07-02 20:11:00,70.5,60.3,29.09,East,82,0.0,3.1,70,0.00,,,0.00,VWS V14.00,2013-07-03 00:11:00,
2013-07-02 20:16:00,70.5,60.3,29.09,East,82,0.0,3.1,70,0.00,,,0.00,VWS V14.00,2013-07-03 00:16:00,
2013-07-02 20:21:00,70.2,60.3,29.09,East,82,0.0,3.1,71,0.00,,,0.00,VWS V14.00,2013-07-03 00:21:00,
2013-07-02 20:23:00,70.2,60.3,29.09,NE,47,0.0,3.1,71,0.00,,,0.00,VWS V14.00,2013-07-03 00:23:00,
2013-07-02 20:24:00,70.2,60.3,29.09,ENE,68,0.0,3.1,71,0.00,,,0.00,VWS V14.00,2013-07-03 00:24:00,
2013-07-02 20:28:00,70.0,60.2,29.09,NNE,28,0.0,3.1,71,0.00,,,0.00,VWS V14.00,2013-07-03 00:28:00,
2013-07-02 20:33:00,70.0,60.2,29.09,NNE,28,0.0,0.0,71,0.00,,,0.00,VWS V14.00,2013-07-03 00:33:00,
2013-07-02 20:38:00,69.8,60.4,29.09,NNE,28,0.0,0.0,72,0.00,,,0.00,VWS V14.00,2013-07-03 00:38:00,
2013-07-02 20:43:00,69.6,60.6,29.09,NNE,31,0.0,0.0,73,0.00,,,0.00,VWS V14.00,2013-07-03 00:43:00,
2013-07-02 20:48:00,69.4,60.4,29.12,NNE,31,0.0,0.0,73,0.00,,,0.00,VWS V14.00,2013-07-03 00:48:00,
2013-07-02 20:53:00,69.1,60.5,29.12,NNE,31,0.0,0.0,74,0.00,,,0.00,VWS V14.00,2013-07-03 00:53:00,
2013-07-02 20:58:00,69.1,60.1,29.12,NNE,31,0.0,0.0,73,0.00,,,0.00,VWS V14.00,2013-07-03 00:58:00,
2013-07-02 21:00:00,68.9,59.9,29.12,NNE,31,0.0,0.0,73,0.00,,,0.00,VWS V14.00,2013-07-03 01:00:00,
2013-07-02 21:03:00,68.7,60.1,29.12,NNE,31,0.0,0.0,74,0.00,,,0.00,VWS V14.00,2013-07-03 01:03:00,
2013-07-02 21:08:00,68.4,60.1,29.12,NNE,31,0.0,0.0,75,0.00,,,0.00,VWS V14.00,2013-07-03 01:08:00,
2013-07-02 21:09:00,68.4,60.5,29.12,NNE,31,0.0,0.0,76,0.00,,,0.00,VWS V14.00,2013-07-03 01:09:00,
2013-07-02 21:14:00,68.0,60.5,29.09,NNE,31,0.0,0.0,77,0.00,,,0.00,VWS V14.00,2013-07-03 01:14:00,
2013-07-02 21:19:00,67.5,60.7,29.09,NNE,31,0.0,0.0,79,0.00,,,0.00,VWS V14.00,2013-07-03 01:19:00,
2013-07-02 21:24:00,67.3,60.5,29.09,NNE,31,0.0,0.0,79,0.00,,,0.00,VWS V14.00,2013-07-03 01:24:00,
2013-07-02 21:26:00,67.1,60.4,29.09,NNE,31,0.0,0.0,79,0.00,,,0.00,VWS V14.00,2013-07-03 01:26:00,
2013-07-02 21:31:00,66.7,60.4,29.12,NNE,31,0.0,0.0,80,0.00,,,0.00,VWS V14.00,2013-07-03 01:31:00,
2013-07-02 21:36:00,66.7,60.7,29.12,NNE,31,0.0,0.0,81,0.00,,,0.00,VWS V14.00,2013-07-03 01:36:00,
2013-07-02 21:41:00,66.4,60.4,29.12,NNE,31,0.0,0.0,81,0.00,,,0.00,VWS V14.00,2013-07-03 01:41:00,
2013-07-02 21:46:00,66.2,60.2,29.12,NNE,31,0.0,0.0,81,0.00,,,0.00,VWS V14.00,2013-07-03 01:46:00,
2013-07-02 21:49:00,66.0,60.4,29.12,NNE,31,0.0,0.0,82,0.00,,,0.00,VWS V14.00,2013-07-03 01:49:00,
2013-07-02 21:50:00,66.0,60.4,29.12,NNE,31,0.0,0.0,82,0.00,,,0.00,VWS V14.00,2013-07-03 01:50:00,
2013-07-02 21:55:00,65.8,60.5,29.12,NNE,31,0.0,0.0,83,0.00,,,0.00,VWS V14.00,2013-07-03 01:55:00,
2013-07-02 22:00:00,66.0,61.0,29.12,NNE,27,0.0,0.0,84,0.00,,,0.00,VWS V14.00,2013-07-03 02:00:00,
2013-07-02 22:06:00,66.0,60.7,29.12,NNE,26,0.0,4.0,83,0.00,,,0.00,VWS V14.00,2013-07-03 02:06:00,
2013-07-02 22:11:00,65.7,60.4,29.12,NNE,26,0.0,4.0,83,0.00,,,0.00,VWS V14.00,2013-07-03 02:11:00,
2013-07-02 22:16:00,65.7,60.4,29.12,NNE,17,0.0,4.0,83,0.00,,,0.00,VWS V14.00,2013-07-03 02:16:00,
2013-07-02 22:21:00,65.5,60.2,29.12,NNE,17,0.0,4.0,83,0.00,,,0.00,VWS V14.00,2013-07-03 02:21:00,
2013-07-02 22:26:00,65.3,60.3,29.12,NNE,17,0.0,4.0,84,0.00,,,0.00,VWS V14.00,2013-07-03 02:26:00,
2013-07-02 22:31:00,65.1,59.8,29.12,NNE,17,0.0,0.0,83,0.00,,,0.00,VWS V14.00,2013-07-03 02:31:00,
2013-07-02 22:32:00,64.8,59.8,29.12,NNE,17,0.0,0.0,84,0.00,,,0.00,VWS V14.00,2013-07-03 02:32:00,
2013-07-02 22:38:00,64.2,60.0,29.12,NNE,17,0.0,0.0,86,0.00,,,0.00,VWS V14.00,2013-07-03 02:38:00,
2013-07-02 22:43:00,64.4,60.8,29.12,NNE,17,0.0,0.0,88,0.00,,,0.00,VWS V14.00,2013-07-03 02:43:00,
2013-07-02 22:46:00,64.2,60.9,29.12,NNE,17,0.0,0.0,89,0.00,,,0.00,VWS V14.00,2013-07-03 02:46:00,
2013-07-02 22:51:00,64.2,60.6,29.12,NNE,17,0.0,0.0,88,0.00,,,0.00,VWS V14.00,2013-07-03 02:51:00,
2013-07-02 22:56:00,63.9,60.6,29.12,NNE,17,0.0,0.0,89,0.00,,,0.00,VWS V14.00,2013-07-03 02:56:00,
2013-07-02 23:01:00,63.9,60.6,29.12,NNE,17,0.0,0.0,89,0.00,,,0.00,VWS V14.00,2013-07-03 03:01:00,
2013-07-02 23:02:00,63.7,60.4,29.12,NNE,17,0.0,0.0,89,0.00,,,0.00,VWS V14.00,2013-07-03 03:02:00,
2013-07-02 23:07:00,63.5,60.2,29.12,NNE,17,0.0,0.0,89,0.00,,,0.00,VWS V14.00,2013-07-03 03:07:00,
2013-07-02 23:12:00,63.5,60.5,29.12,NNE,17,0.0,0.0,90,0.00,,,0.00,VWS V14.00,2013-07-03 03:12:00,
2013-07-02 23:17:00,63.5,60.8,29.12,NNE,17,0.0,0.0,91,0.00,,,0.00,VWS V14.00,2013-07-03 03:17:00,
2013-07-02 23:20:00,63.3,60.7,29.12,NNE,17,0.0,0.0,91,0.00,,,0.00,VWS V14.00,2013-07-03 03:20:00,
2013-07-02 23:25:00,63.1,60.5,29.12,NNE,17,0.0,0.0,91,0.00,,,0.00,VWS V14.00,2013-07-03 03:25:00,
2013-07-02 23:30:00,63.1,60.5,29.15,NNE,17,0.0,0.0,91,0.00,,,0.00,VWS V14.00,2013-07-03 03:30:00,
2013-07-02 23:35:00,63.0,60.3,29.15,NNE,17,0.0,0.0,91,0.00,,,0.00,VWS V14.00,2013-07-03 03:35:00,
2013-07-02 23:39:00,62.8,60.4,29.15,NNE,17,0.0,0.0,92,0.00,,,0.00,VWS V14.00,2013-07-03 03:39:00,
2013-07-02 23:44:00,62.6,59.9,29.12,NNE,17,0.0,0.0,91,0.00,,,0.00,VWS V14.00,2013-07-03 03:44:00,
2013-07-02 23:49:00,62.6,60.2,29.12,NNE,17,0.0,0.0,92,0.00,,,0.00,VWS V14.00,2013-07-03 03:49:00,
2013-07-02 23:54:00,62.6,60.5,29.12,NNE,17,0.0,0.0,93,0.00,,,0.00,VWS V14.00,2013-07-03 03:54:00,
2013-07-02 23:59:00,62.4,60.4,29.15,NNE,17,0.0,0.0,93,0.00,,,0.00,VWS V14.00,2013-07-03 03:59:00,